User: anonymous   Login
Location: Unspecified
(0.0000°N, 0.0000°E)
Time: 04:46:40
(UTC+00:00)
Language:

Tiros 9 - Orbit

View from above orbital plane
View from above orbital plane
View from above satellite
View from above satellite

Ground track
Ground track

The orbit data is extracted from the following two-line orbital elements,

1   978U 65004A   18020.36757561 +.00000125 +00000-0 +17445-3 0  9992
2   978 096.3890 181.6413 1158905 190.5620 166.9046 12.10872917340059
Epoch (UTC): 20 January 2018 08:49:18
Eccentricity: 0.1158905
inclination: 96.3890°
perigee height: 704 km
apogee height: 2561 km
right ascension of ascending node: 181.6413°
argument of perigee: 190.5620°
revolutions per day: 12.10872917
mean anomaly at epoch: 166.9046°
orbit number at epoch: 34005

The dashed part of the orbit path shows where the satellite is in the earth's shadow,  

DLR